QPF
0.00 0.00 0.00 0.00 0.00 0.00 0.00 0.00 0.00 0.00 0.00 0.00 0.00 0.00 0.00 0.00 0.00 0.00 0.00 0.00 0.00 0.00 0.00 0.00 0.00 0.00 0.00 0.00 0.00 0.00 0.00 0.00 0.00 0.00 0.00 0.00 0.00 0.00 0.00 0.00 0.00 0.00 0.00 0.00
0.00 0.00 0.00 0.00 0.00 0.00 0.00 0.00 0.00 0.00 0.00 0.00 0.00 0.00 0.00 0.00 0.00 0.00 0.00 0.00 0.00 0.00 0.00 0.00 0.00 0.00 0.00 0.00 0.00 0.00 0.00 0.00 0.00 0.00 0.00 0.00 0.00 0.00 0.00 0.00 0.00 0.00 0.00 0.00
0.00 0.00 0.00 0.00 0.00 0.00 0.00 0.00 0.00 0.00 0.00 0.00 0.00 0.00 0.00 0.00 0.00 0.00 0.00 0.00 0.00 0.00 0.00 0.00 0.00 0.00 0.00 0.00 0.00 0.00 0.00 0.00 0.00 0.00 0.00 0.00 0.00 0.00 0.00 0.00 0.00 0.00 0.00 0.00
0.00 0.00 0.00 0.00 0.00 0.00 0.00 0.00 0.00 0.00 0.00 0.00 0.00 0.00 0.00 0.00 0.00 0.00 0.00 0.00 0.00 0.00 0.00 0.00 0.00 0.00 0.00 0.00 0.00 0.00 0.00 0.00 0.00 0.00 0.00 0.00 0.00 0.00 0.00 0.00 0.00 0.00 0.00 0.00
0.00 0.00 0.00 0.00 0.00 0.00 0.00 0.00 0.00 0.00 0.00 0.00 0.00 0.00 0.00 0.00 0.00 0.00 0.00 0.00 0.00 0.00 0.00 0.00 0.00 0.00 0.00 0.00 0.00 0.00 0.00 0.00 0.00 0.00 0.00 0.00 0.00 0.00 0.00 0.00 0.00 0.00 0.00 0.00
0.00 0.00 0.00 0.00 0.00 0.00 0.00 0.00 0.00 0.00 0.00 0.00 0.00 0.00 0.00 0.00 0.00 0.00 0.00 0.00 0.00 0.00 0.00 0.00 0.00 0.00 0.00 0.00 0.00 0.00 0.00 0.00 0.00 0.00 0.00 0.00 0.00 0.00 0.00 0.00 0.00 0.00 0.00 0.00
0.00 0.00 0.00 0.00 0.00 0.00 0.00 0.00 0.00 0.00 0.00 0.00 0.00 0.00 0.00 0.00 0.00 0.00 0.00 0.00 0.00 0.00 0.00 0.00 0.00 0.00 0.00 0.00 0.00 0.00 0.00 0.00 0.00 0.00 0.00 0.00 0.00 0.00 0.00 0.00 0.00 0.00 0.00 0.00
0.00 0.00 0.00 0.00 0.00 0.00 0.00 0.00 0.00 0.00 0.00 0.00 0.00 0.00 0.00 0.00 0.00 0.00 0.00 0.00 0.00 0.00 0.00 0.00 0.00 0.00 0.00 0.00 0.00 0.00 0.00 0.00 0.00 0.00 0.00 0.00 0.00 0.00 0.00 0.00 0.00 0.00 0.00 0.00
0.00 0.00 0.00 0.00 0.00 0.00 0.00 0.00 0.00 0.00 0.00 0.00 0.00 0.00 0.00 0.00 0.00 0.00 0.00 0.00 0.00 0.00 0.00 0.00 0.00 0.00 0.00 0.00 0.00 0.00 0.00 0.00 0.00 0.00 0.00 0.00 0.00 0.00 0.00 0.00 0.00 0.00 0.00 0.00
0.00 0.00 0.00 0.00 0.00 0.00 0.00 0.00 0.00 0.00 0.00 0.00 0.00 0.00 0.00 0.00 0.00 0.00 0.00 0.00 0.00 0.00 0.00 0.00 0.00 0.00 0.00 0.00 0.00 0.00 0.00 0.00 0.00 0.00 0.00 0.00 0.00 0.00 0.00 0.00 0.00 0.00 0.00 0.00
0.00 0.00 0.00 0.00 0.00 0.00 0.00 0.00 0.00 0.00 0.00 0.00 0.00 0.00 0.00 0.00 0.00 0.00 0.00 0.00 0.00 0.00 0.00 0.00 0.00 0.00 0.00 0.00 0.00 0.00 0.00 0.00 0.00 0.00 0.00 0.00 0.00 0.00 0.00 0.00 0.00 0.00 0.00 0.00
0.00 0.00 0.00 0.00 0.00 0.00 0.00 0.00 0.00 0.00 0.00 0.00 0.00 0.00 0.00 0.00 0.00 0.00 0.00 0.00 0.00 0.00 0.00 0.00 0.00 0.00 0.00 0.00 0.00 0.00 0.00 0.00 0.00 0.00 0.00 0.00 0.00 0.00 0.00 0.00 0.00 0.00 0.00 0.00
0.00 0.00 0.00 0.00 0.00 0.00 0.00 0.00 0.00 0.00 0.00 0.00 0.00 0.00 0.00 0.00 0.00 0.00 0.00 0.00 0.00 0.00 0.00 0.00 0.00 0.00 0.00 0.00 0.00 0.00 0.00 0.00 0.00 0.00 0.00 0.00 0.00 0.00 0.00 0.00 0.00 0.00 0.00 0.00
0.00 0.00 0.00 0.00 0.00 0.00 0.00 0.00 0.00 0.00 0.00 0.00 0.00 0.00 0.00 0.00 0.00 0.00 0.00 0.00 0.00 0.00 0.00 0.00 0.00 0.00 0.00 0.00 0.00 0.00 0.00 0.00 0.00 0.00 0.00 0.00 0.00 0.00 0.00 0.00 0.00 0.00 0.00 0.00
0.00 0.00 0.00 0.00 0.00 0.00 0.00 0.00 0.00 0.00 0.00 0.00 0.00 0.00 0.00 0.00 0.00 0.00 0.00 0.00 0.00 0.00 0.00 0.00 0.00 0.00 0.00 0.00 0.00 0.00 0.00 0.00 0.00 0.00 0.00 0.00 0.00 0.00 0.00 0.00 0.00 0.00 0.00 0.00
0.00 0.00 0.00 0.00 0.00 0.00 0.00 0.00 0.00 0.00 0.00 0.00 0.00 0.00 0.00 0.00 0.00 0.00 0.00 0.00 0.00 0.00 0.00 0.00 0.00 0.00 0.00 0.00 0.00 0.00 0.00 0.00 0.00 0.00 0.00 0.00 0.00 0.00 0.00 0.00 0.00 0.00 0.00 0.00
0.00 0.00 0.00 0.00 0.00 0.00 0.00 0.00 0.00 0.00 0.00 0.00 0.00 0.00 0.00 0.00 0.00 0.00 0.00 0.00 0.00 0.00 0.00 0.00 0.00 0.00 0.00 0.00 0.00 0.00 0.00 0.00 0.00 0.00 0.00 0.00 0.00 0.00 0.00 0.00 0.00 0.00 0.00 0.00
0.00 0.00 0.00 0.00 0.00 0.00 0.00 0.00 0.00 0.00 0.00 0.00 0.00 0.00 0.00 0.00 0.00 0.00 0.00 0.00 0.00 0.00 0.00 0.00 0.00 0.00 0.00 0.00 0.00 0.00 0.00 0.00 0.00 0.00 0.00 0.00 0.00 0.00 0.00 0.00 0.00 0.00 0.00 0.00
0.00 0.00 0.00 0.00 0.00 0.00 0.00 0.00 0.00 0.00 0.00 0.00 0.00 0.00 0.00 0.00 0.00 0.00 0.00 0.00 0.00 0.00 0.00 0.00 0.00 0.00 0.00 0.00 0.00 0.00 0.00 0.00 0.00 0.00 0.00 0.00 0.00 0.00 0.00 0.00 0.00 0.00 0.00 0.00
0.00 0.00 0.00 0.00 0.00 0.00 0.00 0.00 0.00 0.00 0.00 0.00 0.00 0.00 0.00 0.00 0.00 0.00 0.00 0.00 0.00 0.00 0.00 0.00 0.00 0.00 0.00 0.00 0.00 0.00 0.00 0.00 0.00 0.00 0.00 0.00 0.00 0.00 0.00 0.00 0.00 0.00 0.00 0.00
0.00 0.00 0.00 0.00 0.00 0.00 0.00 0.00 0.00 0.00 0.00 0.00 0.00 0.00 0.00 0.00 0.00 0.00 0.00 0.00 0.00 0.00 0.00 0.00 0.00 0.00 0.00 0.00 0.00 0.00 0.00 0.00 0.00 0.00 0.00 0.00 0.00 0.00 0.00 0.00 0.00 0.00 0.00 0.00
0.00 0.00 0.00 0.00 0.00 0.00 0.00 0.00 0.00 0.00 0.00 0.00 0.00 0.00 0.00 0.00 0.00 0.00 0.00 0.00 0.00 0.00 0.00 0.00 0.00 0.00 0.00 0.00 0.00 0.00 0.00 0.00 0.00 0.00 0.00 0.00 0.00 0.00 0.00 0.00 0.00 0.00 0.00 0.00
0.00 0.00 0.00 0.00 0.00 0.00 0.00 0.00 0.00 0.00 0.00 0.00 0.00 0.00 0.00 0.00 0.00 0.00 0.00 0.00 0.00 0.00 0.00 0.00 0.00 0.00 0.00 0.00 0.00 0.00 0.00 0.00 0.00 0.00 0.00 0.00 0.00 0.00 0.00 0.00 0.00 0.01 0.01 0.01
0.00 0.00 0.00 0.00 0.00 0.00 0.00 0.00 0.00 0.00 0.00 0.00 0.00 0.00 0.00 0.00 0.00 0.00 0.00 0.00 0.00 0.00 0.00 0.00 0.00 0.00 0.00 0.00 0.00 0.00 0.00 0.00 0.00 0.00 0.00 0.00 0.00 0.00 0.00 0.00 0.01 0.01 0.02 0.05
0.00 0.00 0.00 0.00 0.00 0.00 0.00 0.00 0.00 0.00 0.00 0.00 0.00 0.00 0.00 0.00 0.00 0.00 0.00 0.00 0.00 0.00 0.00 0.00 0.00 0.00 0.00 0.00 0.00 0.00 0.00 0.00 0.00 0.00 0.00 0.00 0.00 0.00 0.00 0.00 0.00 0.01 0.03 0.07
0.00 0.00 0.00 0.00 0.00 0.00 0.00 0.00 0.00 0.00 0.00 0.00 0.00 0.00 0.00 0.00 0.00 0.00 0.00 0.00 0.00 0.00 0.00 0.00 0.00 0.00 0.00 0.00 0.00 0.00 0.00 0.00 0.00 0.00 0.00 0.00 0.00 0.00 0.00 0.00 0.00 0.01 0.02 0.04
MSLP
1020.32 1021.14 1021.94 1022.67 1023.30 1023.83 1024.29 1024.73 1025.20 1025.74 1026.38 1027.10 1027.86 1028.62 1029.31 1029.89 1030.32 1030.61 1030.78 1030.88 1030.98 1031.13 1031.35 1031.68 1032.08 1032.52 1032.94 1033.27 1033.46 1033.48 1033.31 1032.97 1032.50 1031.94 1031.35 1030.75 1030.17 1029.63 1029.10 1028.59 1028.08 1027.54 1027.00 1026.44
1021.41 1022.10 1022.74 1023.27 1023.70 1024.04 1024.33 1024.64 1025.03 1025.53 1026.15 1026.88 1027.68 1028.48 1029.21 1029.83 1030.31 1030.66 1030.89 1031.06 1031.23 1031.43 1031.71 1032.07 1032.49 1032.93 1033.34 1033.66 1033.85 1033.89 1033.75 1033.46 1033.05 1032.55 1032.01 1031.44 1030.87 1030.30 1029.72 1029.14 1028.54 1027.94 1027.33 1026.74
1022.49 1023.06 1023.53 1023.88 1024.12 1024.29 1024.43 1024.63 1024.93 1025.38 1025.97 1026.69 1027.48 1028.28 1029.04 1029.70 1030.24 1030.66 1030.98 1031.25 1031.51 1031.80 1032.14 1032.54 1032.98 1033.40 1033.78 1034.06 1034.22 1034.23 1034.10 1033.84 1033.48 1033.04 1032.54 1032.01 1031.45 1030.86 1030.24 1029.60 1028.94 1028.28 1027.63 1027.00
1023.54 1023.99 1024.31 1024.51 1024.60 1024.62 1024.65 1024.75 1024.98 1025.36 1025.90 1026.57 1027.32 1028.10 1028.85 1029.52 1030.10 1030.59 1031.01 1031.39 1031.77 1032.16 1032.58 1033.03 1033.47 1033.86 1034.19 1034.42 1034.52 1034.50 1034.36 1034.11 1033.78 1033.39 1032.94 1032.44 1031.90 1031.30 1030.66 1029.99 1029.29 1028.59 1027.91 1027.26
1024.51 1024.86 1025.08 1025.16 1025.13 1025.06 1025.01 1025.04 1025.20 1025.52 1025.99 1026.59 1027.27 1027.98 1028.68 1029.34 1029.93 1030.48 1030.98 1031.47 1031.97 1032.47 1032.97 1033.46 1033.90 1034.28 1034.55 1034.72 1034.76 1034.70 1034.54 1034.29 1033.99 1033.63 1033.22 1032.75 1032.22 1031.64 1031.00 1030.31 1029.60 1028.88 1028.18 1027.53
1025.41 1025.68 1025.81 1025.81 1025.73 1025.60 1025.51 1025.50 1025.62 1025.89 1026.28 1026.79 1027.37 1027.98 1028.60 1029.20 1029.78 1030.35 1030.92 1031.50 1032.09 1032.69 1033.26 1033.80 1034.25 1034.61 1034.84 1034.95 1034.94 1034.84 1034.65 1034.41 1034.12 1033.79 1033.41 1032.97 1032.47 1031.90 1031.26 1030.58 1029.87 1029.16 1028.47 1027.81
1026.20 1026.42 1026.50 1026.46 1026.34 1026.21 1026.12 1026.11 1026.21 1026.42 1026.75 1027.16 1027.63 1028.12 1028.63 1029.15 1029.69 1030.26 1030.86 1031.50 1032.16 1032.83 1033.47 1034.04 1034.51 1034.85 1035.05 1035.12 1035.08 1034.95 1034.75 1034.50 1034.23 1033.91 1033.56 1033.14 1032.66 1032.10 1031.48 1030.81 1030.11 1029.42 1028.74 1028.10
1026.88 1027.05 1027.10 1027.05 1026.95 1026.84 1026.77 1026.78 1026.88 1027.07 1027.34 1027.66 1028.01 1028.39 1028.79 1029.22 1029.70 1030.24 1030.85 1031.51 1032.22 1032.94 1033.62 1034.21 1034.69 1035.02 1035.20 1035.25 1035.19 1035.04 1034.84 1034.60 1034.33 1034.04 1033.69 1033.29 1032.82 1032.27 1031.66 1031.00 1030.32 1029.64 1028.98 1028.35
1027.42 1027.56 1027.59 1027.55 1027.47 1027.41 1027.38 1027.42 1027.54 1027.71 1027.94 1028.19 1028.45 1028.73 1029.04 1029.39 1029.81 1030.32 1030.91 1031.59 1032.32 1033.06 1033.76 1034.36 1034.83 1035.16 1035.33 1035.36 1035.29 1035.14 1034.94 1034.71 1034.45 1034.17 1033.83 1033.43 1032.96 1032.41 1031.80 1031.15 1030.48 1029.81 1029.17 1028.54
1027.83 1027.94 1027.97 1027.94 1027.89 1027.86 1027.87 1027.95 1028.08 1028.25 1028.45 1028.65 1028.86 1029.07 1029.31 1029.62 1030.00 1030.49 1031.08 1031.76 1032.50 1033.24 1033.93 1034.53 1034.99 1035.29 1035.45 1035.47 1035.39 1035.24 1035.05 1034.83 1034.58 1034.30 1033.96 1033.55 1033.07 1032.51 1031.90 1031.24 1030.57 1029.91 1029.27 1028.64
1028.13 1028.22 1028.23 1028.20 1028.17 1028.16 1028.20 1028.29 1028.42 1028.59 1028.77 1028.94 1029.12 1029.31 1029.54 1029.84 1030.23 1030.73 1031.34 1032.03 1032.77 1033.51 1034.19 1034.76 1035.18 1035.46 1035.59 1035.59 1035.50 1035.35 1035.15 1034.94 1034.69 1034.40 1034.06 1033.64 1033.15 1032.58 1031.94 1031.28 1030.60 1029.93 1029.27 1028.63
1028.37 1028.43 1028.43 1028.38 1028.34 1028.33 1028.35 1028.43 1028.54 1028.69 1028.85 1029.01 1029.19 1029.40 1029.66 1030.00 1030.45 1031.00 1031.65 1032.38 1033.13 1033.87 1034.52 1035.06 1035.44 1035.67 1035.76 1035.73 1035.61 1035.44 1035.24 1035.01 1034.76 1034.46 1034.11 1033.69 1033.18 1032.59 1031.94 1031.26 1030.57 1029.88 1029.20 1028.52
1028.61 1028.64 1028.61 1028.54 1028.46 1028.40 1028.38 1028.40 1028.47 1028.57 1028.70 1028.86 1029.06 1029.32 1029.65 1030.08 1030.62 1031.26 1031.99 1032.78 1033.56 1034.30 1034.93 1035.43 1035.76 1035.93 1035.96 1035.88 1035.72 1035.52 1035.29 1035.04 1034.77 1034.47 1034.10 1033.67 1033.15 1032.56 1031.90 1031.21 1030.50 1029.78 1029.07 1028.35
1028.89 1028.90 1028.83 1028.71 1028.57 1028.44 1028.34 1028.27 1028.26 1028.30 1028.39 1028.55 1028.78 1029.10 1029.52 1030.07 1030.73 1031.50 1032.33 1033.19 1034.02 1034.77 1035.39 1035.84 1036.12 1036.22 1036.18 1036.04 1035.82 1035.56 1035.29 1035.02 1034.73 1034.41 1034.04 1033.60 1033.08 1032.49 1031.84 1031.14 1030.41 1029.67 1028.92 1028.17
1029.24 1029.22 1029.11 1028.94 1028.72 1028.50 1028.30 1028.13 1028.01 1027.97 1028.02 1028.16 1028.42 1028.82 1029.35 1030.03 1030.83 1031.72 1032.66 1033.61 1034.49 1035.26 1035.86 1036.27 1036.48 1036.52 1036.41 1036.19 1035.90 1035.59 1035.27 1034.95 1034.63 1034.29 1033.91 1033.48 1032.97 1032.39 1031.75 1031.05 1030.32 1029.56 1028.79 1027.99
1029.62 1029.58 1029.44 1029.21 1028.92 1028.61 1028.29 1028.01 1027.80 1027.68 1027.68 1027.82 1028.11 1028.58 1029.21 1030.01 1030.94 1031.95 1033.00 1034.01 1034.94 1035.71 1036.30 1036.67 1036.83 1036.80 1036.62 1036.33 1035.98 1035.60 1035.22 1034.85 1034.49 1034.13 1033.75 1033.31 1032.82 1032.27 1031.65 1030.97 1030.24 1029.48 1028.68 1027.86
1029.98 1029.93 1029.76 1029.48 1029.13 1028.73 1028.33 1027.96 1027.67 1027.49 1027.46 1027.60 1027.94 1028.47 1029.20 1030.10 1031.12 1032.23 1033.35 1034.41 1035.36 1036.13 1036.70 1037.03 1037.14 1037.05 1036.81 1036.45 1036.03 1035.59 1035.16 1034.74 1034.35 1033.96 1033.56 1033.13 1032.65 1032.12 1031.52 1030.87 1030.16 1029.40 1028.60 1027.77
1030.23 1030.16 1029.97 1029.65 1029.26 1028.81 1028.35 1027.94 1027.61 1027.42 1027.40 1027.58 1027.96 1028.57 1029.37 1030.34 1031.44 1032.59 1033.74 1034.81 1035.75 1036.50 1037.03 1037.31 1037.38 1037.24 1036.95 1036.55 1036.08 1035.59 1035.10 1034.64 1034.20 1033.78 1033.36 1032.92 1032.45 1031.94 1031.37 1030.74 1030.06 1029.32 1028.54 1027.71
1030.26 1030.18 1029.96 1029.63 1029.21 1028.75 1028.30 1027.90 1027.60 1027.45 1027.49 1027.74 1028.20 1028.88 1029.75 1030.77 1031.90 1033.06 1034.19 1035.22 1036.11 1036.81 1037.28 1037.52 1037.55 1037.38 1037.05 1036.62 1036.12 1035.59 1035.07 1034.56 1034.08 1033.61 1033.16 1032.71 1032.23 1031.73 1031.18 1030.58 1029.93 1029.22 1028.47 1027.66
1030.02 1029.91 1029.68 1029.34 1028.94 1028.51 1028.10 1027.78 1027.58 1027.54 1027.70 1028.06 1028.63 1029.40 1030.33 1031.38 1032.49 1033.62 1034.69 1035.65 1036.46 1037.07 1037.47 1037.66 1037.64 1037.45 1037.11 1036.67 1036.16 1035.61 1035.06 1034.51 1033.99 1033.48 1032.99 1032.50 1032.01 1031.50 1030.97 1030.39 1029.77 1029.10 1028.39 1027.63
1029.51 1029.36 1029.10 1028.77 1028.41 1028.05 1027.75 1027.55 1027.51 1027.64 1027.97 1028.49 1029.20 1030.06 1031.05 1032.11 1033.19 1034.25 1035.22 1036.08 1036.77 1037.28 1037.60 1037.73 1037.68 1037.47 1037.14 1036.70 1036.20 1035.65 1035.08 1034.51 1033.95 1033.40 1032.86 1032.34 1031.82 1031.29 1030.76 1030.20 1029.61 1028.98 1028.32 1027.62
1028.77 1028.56 1028.29 1027.97 1027.66 1027.41 1027.25 1027.23 1027.39 1027.73 1028.27 1028.98 1029.83 1030.81 1031.85 1032.91 1033.95 1034.91 1035.77 1036.49 1037.06 1037.46 1037.69 1037.75 1037.67 1037.46 1037.14 1036.73 1036.25 1035.71 1035.15 1034.56 1033.97 1033.38 1032.80 1032.24 1031.68 1031.14 1030.60 1030.05 1029.49 1028.91 1028.30 1027.66
1027.88 1027.62 1027.33 1027.04 1026.80 1026.67 1026.68 1026.86 1027.25 1027.83 1028.58 1029.49 1030.50 1031.58 1032.67 1033.72 1034.70 1035.56 1036.29 1036.88 1037.31 1037.59 1037.74 1037.75 1037.64 1037.44 1037.14 1036.76 1036.32 1035.81 1035.26 1034.67 1034.06 1033.45 1032.83 1032.23 1031.65 1031.08 1030.53 1030.00 1029.46 1028.92 1028.36 1027.79
1026.96 1026.64 1026.33 1026.08 1025.94 1025.94 1026.13 1026.53 1027.15 1027.95 1028.92 1030.01 1031.17 1032.33 1033.46 1034.49 1035.40 1036.16 1036.77 1037.22 1037.53 1037.71 1037.77 1037.74 1037.62 1037.42 1037.15 1036.82 1036.41 1035.94 1035.41 1034.83 1034.22 1033.59 1032.95 1032.33 1031.72 1031.14 1030.59 1030.07 1029.55 1029.05 1028.54 1028.02
1026.07 1025.71 1025.41 1025.22 1025.18 1025.34 1025.71 1026.32 1027.14 1028.15 1029.31 1030.55 1031.81 1033.04 1034.17 1035.17 1036.01 1036.67 1037.17 1037.51 1037.71 1037.80 1037.81 1037.74 1037.61 1037.43 1037.19 1036.89 1036.53 1036.09 1035.59 1035.04 1034.43 1033.80 1033.16 1032.52 1031.91 1031.33 1030.79 1030.28 1029.79 1029.31 1028.84 1028.36
1025.25 1024.89 1024.63 1024.52 1024.61 1024.93 1025.48 1026.27 1027.28 1028.46 1029.75 1031.09 1032.42 1033.67 1034.79 1035.74 1036.50 1037.08 1037.48 1037.73 1037.86 1037.88 1037.84 1037.75 1037.62 1037.46 1037.24 1036.98 1036.65 1036.25 1035.78 1035.25 1034.66 1034.04 1033.41 1032.78 1032.18 1031.62 1031.09 1030.60 1030.13 1029.68 1029.23 1028.78
Thickness
5713 5691 5671 5672 5677 5679 5681 5676 5662 5641 5638 5634 5621 5604 5595 5589 5584 5572 5560 5551 5543 5532 5519 5503 5486 5469 5451 5436 5420 5406 5393 5380 5370 5363 5356 5353 5348 5344 5341 5338 5334 5332 5330 5330
5690 5670 5673 5684 5683 5683 5679 5668 5657 5640 5636 5632 5616 5605 5595 5586 5574 5561 5554 5546 5534 5519 5503 5486 5469 5451 5434 5417 5400 5385 5372 5360 5350 5340 5333 5328 5323 5320 5318 5313 5310 5307 5306 5305
5668 5666 5678 5678 5669 5669 5669 5650 5643 5640 5629 5628 5616 5603 5592 5580 5569 5559 5550 5535 5518 5503 5486 5470 5453 5434 5415 5397 5380 5365 5353 5341 5330 5321 5314 5309 5306 5302 5299 5296 5292 5288 5284 5283
5668 5670 5673 5667 5655 5655 5652 5644 5642 5640 5624 5619 5608 5598 5585 5573 5562 5551 5537 5520 5505 5489 5474 5457 5438 5418 5400 5381 5363 5348 5336 5325 5314 5305 5298 5292 5288 5284 5281 5278 5276 5273 5270 5269
5656 5658 5658 5653 5648 5648 5645 5645 5641 5639 5628 5623 5612 5598 5583 5569 5556 5543 5527 5512 5496 5479 5461 5441 5421 5403 5384 5365 5349 5335 5323 5313 5303 5294 5286 5279 5272 5268 5264 5262 5260 5258 5256 5255
5658 5661 5654 5648 5651 5651 5649 5648 5641 5635 5621 5610 5622 5602 5586 5565 5550 5531 5518 5504 5488 5468 5447 5426 5408 5388 5369 5352 5337 5324 5313 5303 5293 5284 5276 5268 5261 5256 5251 5247 5244 5243 5242 5240
5656 5654 5653 5651 5648 5650 5644 5635 5625 5619 5612 5616 5619 5607 5572 5549 5537 5525 5512 5495 5476 5455 5434 5414 5395 5376 5358 5342 5327 5314 5303 5294 5284 5275 5266 5258 5250 5243 5237 5232 5229 5228 5227 5226
5658 5641 5638 5638 5632 5627 5634 5628 5605 5594 5601 5610 5614 5589 5549 5544 5533 5523 5506 5486 5464 5443 5422 5402 5382 5363 5347 5330 5316 5304 5294 5284 5275 5266 5257 5248 5240 5233 5226 5220 5217 5214 5212 5211
5649 5637 5634 5632 5632 5628 5626 5614 5610 5597 5598 5592 5605 5561 5546 5538 5530 5516 5498 5475 5453 5432 5411 5390 5371 5354 5337 5321 5308 5296 5286 5276 5265 5256 5248 5240 5231 5223 5217 5212 5208 5204 5201 5199
5643 5642 5636 5633 5628 5625 5622 5613 5603 5594 5578 5572 5588 5588 5551 5532 5523 5506 5486 5464 5443 5422 5401 5379 5361 5344 5327 5314 5301 5289 5278 5267 5256 5247 5238 5230 5221 5215 5209 5204 5200 5195 5191 5188
5641 5637 5632 5628 5627 5619 5616 5612 5603 5591 5583 5562 5555 5560 5545 5529 5516 5496 5476 5454 5432 5412 5391 5370 5352 5335 5320 5307 5294 5282 5271 5260 5250 5240 5230 5221 5214 5208 5202 5195 5190 5186 5182 5178
5634 5628 5633 5626 5614 5612 5607 5603 5594 5578 5578 5573 5555 5548 5539 5525 5510 5488 5467 5447 5425 5402 5381 5362 5343 5327 5314 5301 5289 5276 5264 5253 5243 5233 5223 5214 5207 5200 5193 5187 5181 5176 5172 5168
5625 5623 5623 5615 5609 5603 5602 5602 5592 5579 5565 5554 5546 5548 5531 5520 5500 5482 5462 5439 5416 5394 5373 5353 5335 5320 5307 5295 5282 5270 5258 5247 5236 5226 5217 5209 5200 5193 5185 5178 5172 5166 5162 5157
5618 5618 5618 5612 5612 5605 5603 5597 5585 5573 5558 5555 5558 5552 5527 5511 5493 5475 5454 5429 5405 5384 5364 5345 5327 5313 5301 5288 5276 5264 5253 5241 5231 5221 5212 5203 5194 5185 5177 5168 5161 5154 5148 5142
5617 5617 5625 5619 5618 5609 5597 5591 5586 5571 5563 5553 5556 5543 5526 5503 5487 5467 5444 5421 5398 5378 5358 5338 5321 5309 5296 5284 5271 5260 5249 5238 5227 5218 5209 5199 5189 5179 5169 5160 5151 5142 5133 5124
5617 5614 5617 5614 5615 5602 5591 5589 5582 5574 5566 5557 5547 5534 5514 5501 5480 5459 5435 5412 5390 5371 5350 5331 5317 5304 5292 5279 5268 5256 5246 5235 5225 5216 5207 5197 5186 5175 5164 5153 5143 5130 5117 5106
5617 5612 5608 5603 5612 5601 5590 5599 5583 5576 5570 5559 5544 5533 5513 5494 5475 5453 5426 5403 5383 5361 5342 5324 5310 5298 5287 5275 5264 5252 5243 5233 5224 5215 5205 5194 5182 5171 5159 5147 5134 5118 5103 5091
5613 5608 5598 5592 5591 5583 5608 5588 5586 5578 5571 5560 5547 5531 5511 5488 5466 5437 5414 5394 5374 5353 5334 5317 5305 5295 5285 5274 5261 5250 5240 5232 5223 5214 5203 5192 5180 5168 5156 5142 5126 5110 5094 5082
5605 5602 5598 5579 5575 5585 5592 5582 5573 5565 5559 5557 5543 5525 5502 5481 5458 5422 5407 5389 5368 5349 5331 5315 5304 5295 5284 5271 5260 5250 5240 5231 5222 5213 5202 5191 5179 5167 5153 5139 5123 5106 5089 5079
5599 5595 5585 5571 5563 5572 5598 5577 5569 5556 5539 5546 5532 5514 5493 5472 5444 5421 5400 5384 5364 5347 5330 5315 5303 5293 5282 5270 5260 5249 5239 5230 5220 5211 5200 5189 5178 5165 5152 5138 5122 5104 5088 5079
5594 5590 5579 5571 5562 5581 5583 5567 5554 5535 5548 5534 5522 5504 5482 5463 5437 5415 5398 5379 5362 5345 5328 5313 5299 5289 5280 5270 5259 5248 5238 5228 5218 5208 5199 5189 5178 5166 5155 5140 5124 5107 5091 5081
5606 5595 5586 5580 5565 5575 5571 5554 5544 5545 5539 5528 5511 5492 5473 5453 5432 5412 5393 5374 5357 5340 5325 5310 5296 5287 5279 5270 5258 5247 5237 5227 5217 5208 5200 5191 5180 5169 5158 5144 5129 5113 5097 5086
5622 5617 5609 5601 5597 5597 5577 5565 5558 5547 5534 5519 5497 5479 5461 5445 5426 5407 5388 5370 5354 5337 5321 5307 5294 5285 5277 5268 5257 5247 5238 5229 5219 5210 5203 5193 5184 5174 5162 5149 5136 5121 5106 5093
5627 5623 5607 5602 5606 5590 5578 5567 5554 5545 5529 5510 5489 5470 5453 5436 5417 5398 5381 5366 5350 5334 5318 5305 5293 5284 5275 5266 5257 5248 5240 5230 5219 5212 5205 5196 5188 5178 5166 5154 5141 5128 5115 5103
5632 5611 5600 5603 5606 5590 5577 5562 5548 5532 5517 5498 5479 5463 5447 5428 5409 5391 5375 5363 5347 5332 5317 5304 5292 5283 5274 5266 5258 5250 5241 5232 5222 5214 5207 5198 5190 5181 5169 5157 5146 5135 5122 5111
5630 5622 5610 5611 5612 5589 5577 5563 5545 5524 5507 5490 5473 5456 5441 5424 5405 5389 5375 5360 5344 5329 5315 5302 5291 5282 5273 5266 5259 5251 5242 5234 5225 5219 5210 5201 5194 5185 5174 5162 5151 5142 5133 5124